カタログに戻る

NIMBUS 2 DEB

運用中SSO
NORAD 40644·DEBRIS·🇺🇸 United States

打ち上げ May 15, 1966 から Vandenberg Space Force Base

Loading…

次のパス (今後24時間)

TLE

最新Source: Space-Track

元期: Sep 14, 2026, 13:55 UTC

1 40644U 66040BH  26257.58049052  .00001361  00000-0  23097-2 0  9993
2 40644 100.3439 128.5052 0057768 325.1474  34.5880 13.46703892556054

AllMySatでNIMBUS 2 DEBをリアルタイム追跡

Download on the App Store